Home   Weather   Augusta   Past weeks

Flag for USA Past Weather in Augusta, Georgia, USA — Yesterday and Last 2 Weeks

Now
71 °F

Clear.


Feels Like: 77 °F
Forecast: 55 / 80 °F
Wind: 7 mph from Northwest

Location: Daniel Field

Current Time: Sep 30, 2016 at 11:27:33 PM

Latest Report: Sep 30, 2016 at 10:53 PM


Visibility: 10 mi

Pressure: 30.03 "Hg

Humidity: 39%

Dew Point: 45 °F

Location of AugustaLocation

Past Weather in Augusta — Graph

°F

Augusta Temperature Yesterday

Maximum temperature yesterday: 90 °F (at 2:53 PM)
Minimum temperature yesterday: 71 °F (at 6:53 AM)
Average temperature yesterday: 80 °F

High & Low Weather Summary for the Past Weeks

 TemperatureHumidityPressure
High93 °F (Sep 28, 2:53 PM)88% (Sep 26, 5:53 AM)30.19 "Hg (Sep 26, 5:53 AM)
Low61 °F (Sep 30, 7:53 AM)21% (Sep 29, 2:53 PM)29.85 "Hg (Sep 27, 4:53 PM)
Average79 °F63%30.01 "Hg
* Reported Sep 15 9:53 PM — Sep 30 9:53 PM, Augusta, Weather by CustomWeather, © 2016

Note: Actual official high and low records may vary slightly from our data, if they occured in-between our weather recording intervals... More about our weather records

Advertising

Augusta Weather History for the Previous 24 Hours

Scroll right to see more
 ConditionsComfort  
Time TempWeatherWind HumidityBarometerVisibility
9:53 PM
Fri, Sep 30
73 °FClear.6 mph38%30.02 "Hg10 mi
8:53 PM73 °FClear.3 mph37%30.01 "Hg10 mi
7:53 PM75 °FClear.No wind34%29.99 "Hg10 mi
6:53 PM78 °FSunny.3 mph30%29.97 "Hg10 mi
5:53 PM81 °FSunny.7 mph28%29.97 "Hg10 mi
4:53 PM82 °FSunny.12 mph27%29.96 "Hg10 mi
3:53 PM82 °FSunny.9 mph26%29.97 "Hg10 mi
2:53 PM82 °FSunny.13 mph27%29.98 "Hg10 mi
1:53 PM80 °FSunny.9 mph28%30.00 "Hg10 mi
12:53 PM77 °FSunny.8 mph32%30.01 "Hg10 mi
11:53 AM75 °FSunny.3 mph37%30.03 "Hg10 mi
10:53 AM73 °FSunny.5 mph41%30.03 "Hg10 mi
9:53 AM69 °FSunny.5 mph47%30.03 "Hg10 mi
8:53 AM65 °FSunny.3 mph54%30.00 "Hg10 mi
8:04 AM62 °FSunny.3 mph60%30.01 "Hg1 mi
7:53 AM61 °FSunny.5 mph62%29.99 "Hg1 mi
6:53 AM62 °FClear.6 mph60%29.98 "Hg10 mi
5:53 AM64 °FPassing clouds.5 mph54%29.96 "Hg10 mi
4:53 AM65 °FPassing clouds.5 mph52%29.96 "Hg10 mi
3:53 AM67 °FPassing clouds.5 mph49%29.96 "Hg10 mi
2:53 AM68 °FPassing clouds.5 mph47%29.96 "Hg10 mi
1:53 AM69 °FPassing clouds.5 mph45%29.96 "Hg10 mi
12:53 AM71 °FClear.No wind41%29.97 "Hg10 mi
11:53 PM
Thu, Sep 29
73 °FClear.7 mph40%29.97 "Hg10 mi
Weather by CustomWeather, © 2016

See weather overviewHow to use our weather pages